Flag for Germany Weather past 2 weeks in Wiehl, North Rhine-Westphalia, Germany

Now
59 °F

Partly sunny.


Feels Like: 57 °F
Forecast: 46 / 58 °F
Wind: 12 mph from Southwest

Location: Koeln / Bonn

Current Time: May 29, 2015 at 9:41:06 PM

Latest Report: May 29, 2015 at 9:20 PM


Visibility: N/A

Pressure: 29.77 "Hg

Humidity: 48%

Dew point: 39 °F

Location of WiehlLocation

Historic Weather in Wiehl — Graph

°F

Wiehl temperature yesterday

Maximum temperature yesterday: 68 °F (at 2:20 PM)
Minimum temperature yesterday: 54 °F (at 12:20 AM)
Average temperature yesterday: 59 °F

Past Weeks' High & Low Weather Summary

 TemperatureHumidityPressure
High73 °F (May 18, 4:20 PM)94% (May 15, 7:20 AM)30.33 "Hg (May 15, 7:20 AM)
Low39 °F (May 17, 4:50 AM)30% (May 22, 1:50 PM)29.65 "Hg (May 18, 7:20 PM)
Average55 °F65%30.06 "Hg
* Reported May 14 8:20 PM — May 29 8:20 PM, Wiehl, Weather by CustomWeather, © 2015

Note: Actual official high and low records may vary slightly from our data, if they occured in-between our weather recording intervals... More about our weather records

Advertising

Wiehl weather history for previous 24 hours

 ConditionsComfort  
Time TempWeatherWind HumidityBarometerVisibility
8:20 PM
Fri, May 29
61 °FPartly sunny.16 mph45%29.77 "HgN/A
7:50 PM61 °FPartly sunny.14 mph45%29.77 "HgN/A
7:20 PM61 °FSunny.14 mph42%29.77 "Hg10 mi
6:50 PM63 °FBroken clouds.15 mph42%29.77 "HgN/A
6:20 PM63 °FBroken clouds.13 mph49%29.77 "HgN/A
5:50 PM63 °FPartly sunny.12 mph52%29.77 "HgN/A
5:20 PM63 °FBroken clouds.15 mph52%29.77 "HgN/A
4:50 PM63 °FBroken clouds.15 mph52%29.77 "HgN/A
4:20 PM61 °FScattered showers. Partly sunny.15 mph55%29.80 "HgN/A
3:50 PM61 °FScattered showers. Partly sunny.15 mph55%29.80 "HgN/A
3:20 PM59 °FPartly sunny.14 mph63%29.80 "HgN/A
2:50 PM61 °FSprinkles. Broken clouds.15 mph55%29.80 "HgN/A
2:20 PM61 °FPartly sunny.8 mph52%29.80 "HgN/A
1:50 PM61 °FPartly sunny.10 mph52%29.83 "HgN/A
1:20 PM63 °FBroken clouds.9 mph52%29.83 "HgN/A
12:50 PM61 °FBroken clouds.8 mph52%29.83 "HgN/A
12:20 PM59 °FPartly sunny.10 mph51%29.86 "HgN/A
11:50 AM59 °FBroken clouds.12 mph51%29.86 "HgN/A
11:20 AM57 °FBroken clouds.7 mph51%29.86 "HgN/A
10:50 AM55 °FBroken clouds.9 mph55%29.89 "HgN/A
10:20 AM57 °FBroken clouds.13 mph55%29.89 "HgN/A
9:50 AM57 °FPartly sunny.10 mph59%29.89 "HgN/A
9:20 AM55 °FPartly sunny.7 mph63%29.89 "HgN/A
8:50 AM54 °FPartly sunny.6 mph67%29.89 "HgN/A
8:20 AM52 °FBroken clouds.5 mph72%29.89 "HgN/A
7:50 AM52 °FBroken clouds.6 mph77%29.92 "HgN/A
7:20 AM50 °FBroken clouds.5 mph82%29.92 "HgN/A
6:50 AM48 °FBroken clouds.7 mph87%29.92 "HgN/A
6:20 AM46 °FPassing clouds.5 mph82%29.92 "HgN/A
5:50 AM46 °FPassing clouds.5 mph87%29.92 "HgN/A
5:20 AM46 °FPartly cloudy.6 mph87%29.92 "HgN/A
4:50 AM46 °FClear.6 mph87%29.92 "Hg10 mi
4:20 AM48 °FClear.6 mph87%29.92 "Hg10 mi
3:50 AM50 °FClear.6 mph82%29.92 "Hg10 mi
3:20 AM50 °FPassing clouds.6 mph82%29.95 "HgN/A
2:50 AM52 °FPassing clouds.6 mph82%29.95 "HgN/A
2:20 AM50 °FPassing clouds.6 mph88%29.95 "HgN/A
1:50 AM52 °FPartly cloudy.5 mph77%29.95 "HgN/A
1:20 AM52 °FPassing clouds.3 mph82%29.95 "HgN/A
12:50 AM52 °FPassing clouds.3 mph82%29.95 "HgN/A
12:20 AM54 °FPassing clouds.2 mph77%29.98 "HgN/A
11:50 PM
Thu, May 28
54 °FPassing clouds.2 mph77%29.98 "HgN/A
11:20 PM54 °FPassing clouds.3 mph77%29.98 "HgN/A
10:50 PM54 °FPassing clouds.2 mph77%29.98 "HgN/A
10:20 PM54 °FBroken clouds.2 mph77%29.98 "HgN/A
9:50 PM55 °FBroken clouds.3 mph72%29.95 "HgN/A
9:20 PM55 °FPartly sunny.5 mph72%29.95 "HgN/A
Weather by CustomWeather, © 2015

See weather overviewHow to use our weather pages